Simultaneous Nadir Overpasses (SNOs) Predictions

Prediction of SNOs between GOES-16 and METOP-C Satellite Orbit:

Table of predicted SNOs for the next 14.0 days since TLE Epoch: 1/7/2023
Index Date Time (GOES-16) GOES-16 Lat,Lon METOP-C Lat,Lon Distance(km) Time Diff (sec)
1 01/07/2023 14:24:56 -0.03, -75.20 -0.29, -73.98 139.23 80
2 01/09/2023 02:46:37 0.02, -75.19 -0.71, -78.58 385.35 80
3 01/10/2023 02:23:16 0.02, -75.20 0.36, -73.57 184.73 80
4 01/11/2023 14:44:48 -0.01, -75.23 0.61, -78.13 330.43 80
5 01/12/2023 14:21:27 -0.01, -75.24 -0.47, -73.13 240.24 80
6 01/14/2023 02:43:07 0.00, -75.24 -0.54, -77.73 283.12 80
7 01/15/2023 02:19:48 0.01, -75.25 0.60, -72.73 287.60 80
8 01/16/2023 14:41:18 -0.01, -75.29 0.41, -77.29 226.93 80
9 01/17/2023 14:17:58 -0.01, -75.31 -0.68, -72.29 343.94 80
10 01/19/2023 02:39:38 0.02, -75.31 -0.34, -76.88 179.43 80
11 01/20/2023 02:16:19 0.02, -75.32 0.81, -71.89 391.33 80
